Temperature
24 22 23 23 24 25 24 24 24 24 25 24 23 22 22 21 21 20 20 20 20 20 20 20 20 20 20 20 20 20 20 19 19 19 19 19 19 19 18 18 18 18 18 18
23 23 24 24 24 24 24 24 23 24 25 24 22 22 22 21 21 21 20 20 20 20 20 20 20 20 20 20 20 20 20 19 19 19 19 19 19 19 19 18 18 18 18 18
24 25 25 25 25 24 24 23 24 24 24 23 23 22 22 21 21 21 21 21 21 21 21 21 20 20 20 20 20 20 20 20 19 19 19 19 19 19 18 19 18 18 18 18
24 24 25 25 25 25 24 24 24 24 23 21 23 22 22 21 20 21 21 21 21 21 21 21 21 20 20 20 20 20 20 20 19 19 19 19 19 19 19 19 19 18 18 18
24 25 25 25 25 25 24 24 24 23 22 21 21 21 21 20 20 20 21 21 21 21 21 21 21 21 21 20 20 20 20 20 20 19 19 19 19 19 19 18 18 18 18 18
24 25 25 25 25 25 24 23 22 20 20 21 22 21 21 20 21 21 21 21 21 21 22 22 21 21 21 20 20 20 20 20 20 19 19 19 19 19 19 19 19 18 18 18
24 25 25 25 25 25 23 22 21 22 20 21 21 21 21 21 21 21 21 21 22 21 21 21 21 21 21 20 20 20 20 20 19 19 19 19 19 19 19 19 18 18 18 18
23 23 24 25 25 24 23 22 21 22 21 20 21 21 21 22 22 22 22 22 22 22 22 22 22 21 21 20 20 20 20 20 19 19 19 19 18 18 18 18 18 18 18 18
21 22 24 25 25 24 23 21 21 19 20 20 20 20 21 22 21 21 21 21 21 21 22 22 21 21 21 20 20 20 20 20 19 19 19 19 19 18 18 18 18 18 18 18
21 23 23 24 25 24 23 19 18 19 20 21 21 21 21 22 21 20 20 20 21 21 21 21 21 21 21 20 20 20 20 20 19 19 19 19 19 18 18 18 18 18 18 17
21 22 22 23 24 24 22 21 18 17 18 19 20 21 21 21 21 20 20 20 21 21 21 21 21 21 20 20 20 20 20 19 19 19 19 19 19 18 18 18 18 17 18 17
19 19 20 21 23 23 23 21 18 20 19 17 19 20 21 20 20 20 20 20 20 21 21 21 21 20 20 20 20 19 19 19 19 19 18 18 18 18 18 18 18 18 18 17
19 19 20 21 21 22 22 21 19 17 16 16 19 21 20 19 19 20 20 20 20 20 20 21 21 20 20 20 19 19 19 19 19 18 18 18 18 18 18 18 18 17 17 17
19 18 19 21 21 21 22 21 19 18 18 17 18 20 20 19 19 19 19 20 20 20 20 20 20 20 20 20 19 19 19 19 18 18 18 18 18 18 18 17 17 17 17 17
19 19 19 20 21 21 22 22 21 20 19 19 20 19 20 19 19 19 19 19 19 19 20 20 20 20 20 19 19 19 19 18 18 18 18 18 18 18 17 17 17 17 16 16
16 18 19 20 21 21 21 22 21 21 20 20 20 19 19 19 19 19 19 19 19 19 19 20 20 20 20 20 19 19 18 18 18 18 18 18 17 17 17 17 17 16 16 16
15 17 18 18 20 21 20 21 21 21 20 20 20 20 18 18 18 18 19 19 19 19 20 20 20 20 20 19 19 19 18 18 17 17 17 17 17 17 16 16 16 16 16 16
15 15 15 16 19 20 19 20 20 20 19 19 19 18 17 18 18 19 19 20 20 20 20 20 20 20 20 19 19 18 18 17 17 17 17 16 16 16 16 16 16 16 15 15
14 15 14 15 17 18 19 20 19 19 19 18 18 17 17 18 18 18 19 20 20 20 20 20 20 19 19 19 18 18 17 17 17 17 17 16 16 16 16 16 16 15 15 15
13 13 14 15 17 18 19 19 19 19 19 18 17 16 17 17 16 17 19 19 19 20 20 19 19 19 19 18 18 17 17 17 17 17 17 16 16 16 16 16 15 15 15 15
15 14 14 15 16 17 18 18 19 19 18 18 18 17 17 16 17 18 19 19 19 19 19 19 19 18 18 18 17 17 17 17 17 16 16 16 16 15 15 15 15 15 15 15
14 14 14 13 16 17 17 17 17 17 18 18 18 18 18 18 18 18 18 18 18 18 19 18 18 18 18 17 17 17 17 16 16 16 16 16 15 15 15 15 15 15 15 14
13 13 12 13 15 16 16 17 18 18 18 18 18 18 18 18 18 18 18 18 18 18 18 18 18 18 17 17 17 16 16 16 16 15 15 15 15 15 15 15 15 14 14 14
13 12 12 13 14 15 16 17 18 18 18 18 18 18 18 18 18 17 17 17 17 17 17 17 17 17 16 16 16 16 15 15 15 15 15 15 15 15 14 14 14 14 14 14
13 13 12 13 14 15 17 17 17 18 18 18 18 18 18 17 17 17 17 17 17 17 17 17 16 16 16 16 15 15 15 15 15 15 14 14 14 14 14 14 14 14 14 14
12 12 13 13 14 14 16 17 17 17 17 17 17 17 17 17 17 17 16 16 16 16 16 16 16 16 16 15 15 15 15 14 14 14 14 14 14 14 14 14 14 13 13 13
Wind_Speed
3 4 3 6 7 5 3 2 2 3 2 2 3 4 5 7 7 7 6 7 7 7 5 5 5 5 5 4 4 4 3 3 3 2 2 2 2 1 1 3 4 5 5 5
4 3 7 5 4 4 3 2 2 3 1 1 1 3 3 6 8 8 9 9 9 7 6 7 6 6 6 5 5 4 3 3 3 3 2 2 1 1 2 2 2 4 5 5
6 5 2 4 3 2 2 4 4 3 2 3 2 4 2 2 4 6 7 8 8 10 10 8 8 7 6 7 6 6 5 3 3 2 2 1 1 1 0 1 1 2 4 4
4 4 2 2 3 5 4 5 5 3 2 2 1 3 6 3 3 6 8 9 9 9 8 8 9 8 8 8 6 5 4 4 3 3 3 3 2 2 2 1 1 1 1 1
5 2 2 3 4 6 5 1 4 3 3 1 1 2 7 1 4 8 9 10 10 10 9 10 10 10 8 7 6 5 4 4 3 3 3 3 2 2 1 0 1 1 1 1
5 3 3 4 2 4 4 6 7 6 5 1 3 3 6 4 7 7 9 10 10 10 9 8 8 7 6 6 6 5 5 4 4 4 3 4 3 2 1 0 0 1 0 0
5 4 2 2 1 2 5 6 4 4 3 5 2 3 8 7 6 8 9 10 10 10 9 8 8 8 8 8 8 7 7 5 4 4 4 4 3 3 3 2 1 1 1 1
2 6 4 2 5 5 4 8 7 5 5 5 2 5 7 5 5 4 5 5 7 8 9 10 10 9 8 9 9 8 8 6 5 5 4 3 3 3 2 2 2 2 2 2
6 6 5 3 3 8 6 4 7 7 2 1 5 6 8 2 2 1 3 5 6 7 8 8 8 7 7 8 9 9 8 6 5 5 4 3 3 2 2 2 2 2 2 2
7 4 5 4 3 4 5 9 6 6 5 3 5 5 5 6 5 3 3 5 5 6 7 6 6 7 7 7 6 7 7 7 6 5 4 3 2 2 2 2 2 2 2 1
5 4 5 4 2 4 4 5 5 5 5 6 4 7 6 8 7 6 6 5 6 6 7 7 6 5 5 5 6 7 6 5 5 5 4 3 3 3 3 2 3 3 2 2
4 5 3 6 5 2 4 6 8 5 4 5 4 8 4 4 5 5 4 3 4 5 5 5 5 5 5 6 6 7 6 6 5 5 4 4 3 3 3 3 3 3 3 2
6 6 1 6 6 3 2 3 5 6 5 5 5 7 3 2 1 2 3 4 4 4 3 3 4 5 6 6 6 6 6 6 5 4 4 4 3 3 4 3 3 3 2 2
6 5 7 9 7 4 2 2 4 5 4 6 8 8 6 4 3 3 3 4 5 5 5 5 4 4 5 5 5 6 5 5 5 4 4 3 3 3 3 3 2 2 2 2
5 4 5 5 5 4 4 4 4 5 8 8 8 8 9 7 6 5 4 5 6 5 6 6 5 5 4 4 4 4 4 4 4 4 3 3 3 3 3 2 2 3 3 3
3 4 2 2 2 3 3 4 5 5 4 6 5 9 7 4 3 4 5 6 7 6 6 7 6 5 5 5 5 4 3 3 3 3 2 2 2 2 2 3 3 4 3 3
2 4 3 3 3 1 4 5 5 4 4 6 8 8 3 2 4 6 7 7 7 7 7 7 7 6 6 6 6 5 4 3 3 3 2 1 2 3 3 3 2 2 2 2
6 5 4 2 2 5 8 3 4 4 4 4 5 4 3 4 3 3 4 7 7 6 7 6 6 6 5 5 5 5 4 4 4 3 2 2 2 3 3 2 2 2 2 2
5 7 4 4 4 5 6 3 3 3 4 2 3 2 1 1 3 2 1 3 5 5 5 5 5 5 5 5 5 5 4 4 4 3 3 3 2 3 3 3 3 2 2 2
5 5 5 4 4 7 8 3 1 3 4 3 3 3 3 4 1 4 2 1 2 2 2 3 4 4 4 4 5 6 5 5 5 4 4 3 3 3 3 4 3 2 2 3
3 4 3 4 4 7 6 4 1 4 7 3 4 4 5 5 5 4 2 1 2 2 2 4 5 5 4 4 5 5 5 5 5 3 2 2 2 3 4 3 3 2 2 2
4 3 4 4 4 7 3 1 5 6 3 2 2 3 4 4 2 2 2 2 2 1 2 4 4 3 3 4 6 5 5 4 2 2 2 3 3 3 3 3 3 2 3 2
4 6 5 7 7 6 4 5 5 3 3 3 3 3 3 2 2 1 1 2 2 2 3 3 4 4 2 3 4 5 3 2 2 2 3 3 3 3 2 3 3 2 2 2
2 2 2 3 6 7 7 5 3 3 4 4 3 2 3 3 2 2 1 2 2 2 3 3 4 4 2 1 2 3 3 2 2 3 3 3 2 2 2 2 2 3 3 3
4 2 1 4 6 6 6 5 4 3 2 1 1 1 2 3 2 2 2 3 3 3 3 3 4 4 3 2 1 1 1 2 2 2 2 2 2 2 2 2 2 4 4 5
4 5 5 7 7 5 7 6 4 3 2 2 1 1 1 2 3 3 3 3 3 3 3 3 4 4 3 2 2 2 1 2 3 2 2 2 2 2 2 2 2 2 3 3
Wind_Direction
79 86 201 211 193 183 172 189 259 268 266 129 199 220 206 189 186 187 186 182 188 198 192 175 169 159 156 157 156 161 155 160 148 152 159 173 204 221 238 239 228 221 218 211
53 257 233 200 175 165 170 210 269 305 355 136 232 275 232 198 202 196 193 196 195 190 184 182 177 171 172 175 177 176 175 171 171 178 178 173 174 203 227 261 246 227 219 210
185 237 198 156 156 165 212 195 215 227 6 42 69 332 270 232 212 203 199 198 197 193 190 185 183 185 183 189 189 190 192 184 180 171 138 107 75 37 21 299 260 247 231 213
227 259 179 175 213 175 249 220 191 177 101 306 91 273 278 235 231 217 210 203 204 200 188 185 186 190 196 200 194 190 184 182 181 158 151 155 170 199 236 259 246 258 225 201
239 232 181 215 225 176 210 141 134 124 132 53 4 180 283 214 239 237 221 209 205 196 188 190 193 196 196 191 192 194 182 183 176 165 170 178 197 209 228 341 350 339 40 79
248 253 206 211 208 160 141 72 60 53 77 323 243 182 273 232 225 235 220 213 206 192 188 192 193 186 189 186 190 187 182 192 184 176 179 185 195 194 172 216 322 314 335 337
315 305 274 172 56 35 95 91 39 2 8 253 254 199 248 248 232 221 214 208 200 189 185 186 183 188 192 191 192 190 189 194 190 186 191 195 195 182 185 195 203 216 281 286
217 286 264 200 181 180 165 141 158 195 220 270 307 232 253 264 259 233 206 186 179 183 184 189 191 191 193 193 193 192 192 194 190 192 202 196 188 189 201 193 191 206 232 249
183 253 287 258 206 149 142 167 161 136 152 265 279 283 300 292 305 215 170 157 174 184 183 186 185 184 190 193 194 191 188 190 191 193 194 197 191 190 204 203 205 230 249 245
164 233 288 301 73 47 133 143 107 126 154 234 282 274 255 263 255 236 198 189 187 179 177 179 181 185 191 193 187 178 180 186 187 187 193 199 190 197 205 206 232 244 255 258
139 175 300 359 161 190 111 108 109 118 152 163 236 264 232 228 224 218 219 205 191 185 182 183 183 181 175 170 170 176 176 176 184 189 188 192 195 198 200 214 235 238 236 235
149 134 253 269 266 209 165 164 149 157 208 179 188 261 281 229 224 211 215 199 187 185 181 175 170 162 166 173 176 176 175 179 186 185 181 191 198 199 210 230 241 239 235 231
142 122 70 333 334 359 96 139 145 128 124 159 182 259 322 354 290 208 190 180 172 165 152 147 154 164 173 176 174 173 174 178 178 177 186 192 200 213 229 244 251 248 246 246
123 124 168 202 219 215 236 215 163 136 157 197 218 246 283 284 262 239 192 174 164 164 162 158 164 173 171 172 172 170 175 175 174 170 181 200 212 221 232 238 249 255 252 251
112 158 201 227 231 201 218 229 203 197 193 194 228 231 246 240 231 219 192 171 165 169 172 173 176 177 171 168 170 171 171 172 172 168 179 211 227 217 211 222 243 250 247 249
89 151 163 251 241 210 242 253 225 225 207 214 237 258 257 240 205 198 193 182 184 187 187 182 179 172 169 168 165 165 170 174 160 165 189 214 231 235 231 230 227 233 241 240
122 134 134 238 288 44 259 243 217 215 219 196 221 246 249 226 212 210 204 195 195 193 191 186 184 183 180 175 169 174 180 171 161 174 203 218 233 241 236 232 230 233 239 235
150 133 144 170 111 223 242 253 189 188 236 223 234 251 224 227 236 230 203 190 192 195 193 191 185 184 184 173 163 165 166 166 170 182 202 212 232 240 236 226 231 229 226 229
159 143 132 140 192 260 284 251 178 188 265 234 219 247 247 128 33 345 244 196 195 201 196 190 185 180 175 173 164 154 168 176 183 197 215 221 224 233 226 229 240 234 230 238
65 99 122 140 175 224 241 260 204 131 271 244 194 194 175 127 146 257 253 205 180 175 168 174 159 149 161 172 161 161 179 185 205 215 222 228 218 220 221 228 235 231 231 239
50 58 129 170 209 255 259 286 113 178 239 230 196 192 175 189 211 232 221 229 191 167 170 161 153 159 169 163 158 171 185 205 217 212 211 229 231 238 231 222 223 227 224 235
172 155 176 158 190 250 281 108 185 223 252 215 209 202 197 215 239 218 198 186 165 148 144 148 151 154 156 157 159 177 207 220 204 190 206 227 237 244 239 218 221 213 209 222
194 192 188 193 217 255 271 242 260 239 236 240 229 231 191 198 231 221 207 193 180 167 155 147 146 135 133 161 163 179 216 199 187 203 228 239 242 247 243 214 216 221 218 228
255 162 156 253 269 281 288 285 282 255 246 244 226 209 187 195 204 205 211 197 178 157 156 150 142 144 161 192 190 197 202 187 188 222 246 251 246 261 260 230 214 216 226 231
231 171 179 259 278 303 295 280 281 288 277 241 218 204 206 185 206 205 203 204 194 169 163 158 164 171 182 192 219 237 191 163 181 219 244 251 243 244 251 247 228 223 229 222
217 194 198 238 241 234 262 277 282 273 265 227 192 298 269 193 192 198 202 198 183 174 168 170 179 179 187 193 223 260 237 182 182 216 245 247 246 241 237 250 285 273 236 236
Height
1495 1501 1507 1503 1502 1503 1507 1512 1515 1509 1502 1505 1508 1508 1505 1505 1507 1508 1510 1511 1512 1514 1516 1518 1520 1521 1523 1524 1525 1527 1528 1529 1530 1531 1531 1532 1533 1534 1534 1535 1536 1536 1537 1538
1501 1504 1497 1496 1498 1501 1506 1512 1513 1508 1502 1505 1509 1508 1504 1503 1504 1505 1507 1509 1510 1513 1515 1517 1518 1520 1522 1523 1525 1526 1527 1528 1529 1530 1531 1532 1532 1533 1533 1534 1534 1534 1535 1536
1501 1497 1492 1495 1499 1503 1506 1510 1510 1511 1506 1506 1509 1513 1508 1504 1504 1505 1506 1507 1509 1510 1511 1514 1516 1518 1520 1522 1523 1524 1526 1527 1528 1529 1530 1531 1532 1532 1532 1533 1532 1533 1533 1534
1496 1492 1492 1495 1498 1500 1508 1500 1502 1506 1515 1522 1516 1530 1511 1506 1505 1503 1503 1504 1505 1507 1509 1511 1514 1516 1518 1520 1522 1523 1525 1526 1527 1528 1529 1530 1530 1530 1531 1531 1531 1531 1532 1532
1495 1491 1492 1496 1494 1495 1499 1495 1500 1506 1515 1523 1521 1528 1519 1507 1507 1502 1499 1500 1502 1504 1506 1508 1510 1513 1516 1519 1520 1522 1524 1525 1526 1527 1528 1529 1529 1530 1530 1530 1530 1530 1531 1531
1491 1488 1488 1489 1488 1490 1494 1500 1506 1515 1522 1534 1524 1529 1523 1510 1502 1497 1495 1496 1498 1500 1503 1506 1508 1511 1514 1517 1518 1520 1521 1523 1524 1526 1527 1527 1528 1529 1529 1529 1529 1529 1529 1530
1496 1490 1486 1486 1491 1492 1496 1514 1533 1535 1542 1538 1522 1525 1518 1497 1492 1491 1490 1492 1494 1497 1500 1503 1506 1508 1511 1513 1516 1517 1519 1521 1523 1524 1525 1526 1526 1527 1527 1527 1527 1527 1528 1528
1507 1506 1489 1485 1489 1496 1500 1509 1532 1543 1545 1537 1523 1524 1506 1491 1488 1487 1488 1490 1492 1495 1497 1500 1503 1506 1508 1511 1513 1515 1516 1518 1521 1522 1523 1524 1525 1525 1525 1525 1526 1526 1526 1526
1507 1505 1486 1483 1483 1488 1499 1508 1509 1528 1533 1537 1530 1517 1500 1488 1487 1487 1487 1488 1490 1492 1495 1498 1501 1503 1506 1508 1510 1512 1514 1516 1518 1520 1522 1522 1523 1524 1524 1524 1524 1524 1525 1525
1494 1502 1490 1484 1483 1486 1490 1501 1516 1528 1541 1543 1530 1521 1512 1494 1490 1488 1487 1487 1488 1491 1494 1496 1499 1501 1503 1505 1507 1510 1512 1514 1516 1518 1519 1520 1521 1522 1522 1522 1522 1522 1522 1522
1490 1501 1497 1490 1490 1493 1496 1503 1513 1525 1527 1539 1539 1523 1492 1489 1486 1486 1485 1485 1487 1489 1491 1494 1497 1499 1501 1503 1505 1507 1509 1511 1514 1515 1517 1518 1518 1519 1520 1520 1520 1520 1520 1520
1490 1501 1506 1497 1486 1485 1488 1495 1507 1518 1525 1530 1531 1517 1484 1483 1482 1483 1484 1485 1486 1488 1490 1492 1495 1497 1499 1501 1503 1505 1507 1509 1511 1513 1514 1515 1516 1517 1517 1517 1517 1518 1517 1517
1488 1501 1513 1508 1501 1491 1491 1494 1499 1508 1520 1530 1528 1511 1484 1483 1482 1482 1483 1484 1486 1487 1489 1491 1493 1495 1497 1499 1501 1503 1505 1507 1509 1510 1512 1512 1513 1514 1514 1515 1515 1515 1515 1514
1481 1497 1505 1511 1505 1495 1493 1493 1497 1504 1517 1522 1514 1501 1489 1485 1484 1482 1483 1483 1485 1487 1488 1490 1492 1494 1496 1498 1500 1501 1503 1505 1507 1508 1509 1510 1510 1511 1512 1512 1512 1512 1512 1512
1481 1494 1494 1493 1489 1489 1489 1490 1492 1496 1500 1506 1498 1496 1487 1483 1482 1481 1482 1483 1484 1485 1487 1488 1490 1492 1494 1496 1499 1500 1502 1504 1505 1506 1506 1507 1508 1508 1509 1509 1509 1509 1509 1509
1483 1491 1492 1492 1488 1487 1489 1486 1487 1489 1491 1492 1490 1489 1479 1479 1479 1480 1480 1481 1482 1483 1485 1487 1489 1491 1493 1495 1497 1499 1501 1502 1503 1504 1504 1505 1506 1505 1505 1505 1505 1505 1506 1506
1488 1491 1498 1501 1492 1489 1495 1485 1484 1484 1483 1485 1488 1483 1477 1478 1477 1477 1477 1479 1480 1482 1484 1486 1487 1489 1491 1493 1495 1496 1498 1499 1501 1501 1502 1502 1502 1502 1502 1502 1502 1502 1503 1503
1486 1493 1500 1503 1498 1505 1491 1478 1478 1481 1481 1479 1478 1477 1476 1476 1476 1476 1476 1477 1479 1480 1483 1484 1486 1487 1490 1491 1493 1495 1496 1497 1498 1499 1500 1500 1500 1500 1499 1499 1499 1499 1499 1500
1480 1489 1501 1507 1506 1498 1485 1477 1477 1480 1480 1476 1476 1475 1475 1475 1475 1475 1475 1476 1477 1479 1481 1482 1484 1486 1487 1489 1491 1493 1494 1495 1496 1496 1497 1497 1497 1496 1496 1496 1497 1497 1497 1497
1482 1485 1497 1505 1504 1504 1485 1474 1472 1477 1482 1473 1473 1473 1474 1475 1479 1476 1474 1475 1476 1478 1479 1481 1483 1484 1485 1487 1488 1490 1491 1492 1493 1494 1494 1495 1494 1494 1494 1494 1495 1495 1494 1494
1490 1494 1498 1501 1501 1492 1477 1472 1473 1486 1481 1471 1470 1470 1471 1472 1473 1473 1473 1474 1475 1476 1477 1479 1481 1482 1483 1484 1486 1487 1489 1490 1491 1491 1492 1492 1492 1491 1491 1491 1491 1492 1492 1492
1492 1495 1498 1500 1500 1493 1472 1472 1475 1474 1469 1468 1468 1469 1469 1469 1470 1470 1471 1471 1472 1474 1475 1477 1479 1480 1481 1482 1483 1485 1486 1487 1488 1489 1489 1489 1489 1489 1488 1488 1488 1488 1488 1488
1488 1487 1489 1489 1487 1475 1472 1471 1469 1469 1468 1467 1467 1468 1468 1468 1468 1468 1469 1470 1471 1472 1473 1475 1477 1478 1479 1480 1481 1482 1483 1484 1485 1486 1486 1486 1486 1486 1486 1485 1485 1485 1485 1485
1482 1481 1483 1482 1476 1472 1470 1468 1467 1467 1466 1466 1466 1466 1466 1466 1466 1466 1467 1468 1469 1470 1472 1474 1476 1476 1477 1478 1480 1481 1481 1482 1483 1483 1484 1483 1483 1483 1483 1483 1482 1482 1482 1481
1479 1480 1481 1479 1473 1470 1467 1466 1466 1465 1465 1464 1464 1464 1464 1464 1464 1465 1465 1466 1467 1469 1470 1472 1474 1475 1476 1477 1477 1478 1479 1480 1480 1481 1481 1481 1481 1481 1480 1480 1480 1479 1479 1478
1476 1477 1478 1475 1469 1469 1466 1465 1465 1464 1463 1463 1462 1462 1462 1463 1463 1463 1464 1464 1466 1467 1469 1470 1471 1472 1473 1474 1475 1476 1477 1477 1477 1477 1477 1477 1477 1477 1477 1477 1476 1476 1476 1475